Volver al catálogo

THORAD AGENA D DEB

ActivoSSO
NORAD 5025·DEBRIS·🇺🇸 United States

Lanzado Apr 8, 1970 desde Vandenberg Space Force Base

Loading…

Próximos Pases (próximas 24 horas)

TLE

ActualizadoSource: Space-Track

Época: Sep 13, 2026, 10:08 UTC

1 05025U 70025HZ  26256.42237362  .00000175  00000-0  33997-3 0  9993
2 05025 100.0615 325.1562 0044867 157.1368 265.7580 13.50870658771316

Sigue THORAD AGENA D DEB en tiempo real con AllMySat

Download on the App Store